Time,TemperatureF,DewpointF,PressureIn,WindDirection,WindDirectionDegrees,WindSpeedMPH,WindSpeedGustMPH,Humidity,HourlyPrecipIn,Conditions,Clouds,dailyrainin,SoftwareType,DateUTC
2013-09-19 00:03:00,80.2,64.0,29.85,South,175,0.0,0.0,58,0.00,,,0.00,meteohub,2013-09-19 05:03:00,
2013-09-19 00:08:00,80.4,64.2,29.85,SE,146,1.0,0.0,58,0.00,,,0.00,meteohub,2013-09-19 05:08:00,
2013-09-19 00:13:00,80.6,64.4,29.85,SSW,196,0.0,6.0,58,0.00,,,0.00,meteohub,2013-09-19 05:13:00,
2013-09-19 00:18:00,80.8,64.6,29.85,SSE,166,0.0,6.0,58,0.00,,,0.00,meteohub,2013-09-19 05:18:00,
2013-09-19 00:23:00,81.0,64.8,29.85,WSW,239,0.0,6.0,58,0.00,,,0.00,meteohub,2013-09-19 05:23:00,
2013-09-19 00:28:00,81.1,64.9,29.85,SW,217,0.0,6.0,58,0.00,,,0.00,meteohub,2013-09-19 05:28:00,
2013-09-19 00:33:00,81.1,64.9,29.85,SSE,167,0.0,8.0,58,0.00,,,0.00,meteohub,2013-09-19 05:33:00,
2013-09-19 00:38:00,81.1,64.9,29.84,SW,227,0.0,8.0,58,0.00,,,0.00,meteohub,2013-09-19 05:38:00,
2013-09-19 00:44:00,81.1,64.9,29.84,SW,217,0.0,8.0,58,0.00,,,0.00,meteohub,2013-09-19 05:44:00,
2013-09-19 00:49:00,81.3,65.1,29.84,SW,217,0.0,7.0,58,0.00,,,0.00,meteohub,2013-09-19 05:49:00,
2013-09-19 00:54:00,81.3,65.1,29.84,SW,217,0.0,7.0,58,0.00,,,0.00,meteohub,2013-09-19 05:54:00,
2013-09-19 00:59:00,81.1,65.5,29.84,South,183,0.0,5.0,59,0.00,,,0.00,meteohub,2013-09-19 05:59:00,
2013-09-19 01:04:00,81.1,65.5,29.84,South,180,0.0,5.0,59,0.00,,,0.00,meteohub,2013-09-19 06:04:00,
2013-09-19 01:09:00,81.0,65.3,29.84,South,177,0.0,8.0,59,0.00,,,0.00,meteohub,2013-09-19 06:09:00,
2013-09-19 01:14:00,81.0,65.8,29.84,South,175,0.0,8.0,60,0.00,,,0.00,meteohub,2013-09-19 06:14:00,
2013-09-19 01:19:00,81.0,65.8,29.84,South,175,0.0,6.0,60,0.00,,,0.00,meteohub,2013-09-19 06:19:00,
2013-09-19 01:24:00,80.8,65.7,29.83,South,175,0.0,6.0,60,0.00,,,0.00,meteohub,2013-09-19 06:24:00,
2013-09-19 01:29:00,80.8,65.7,29.84,South,175,0.0,0.0,60,0.00,,,0.00,meteohub,2013-09-19 06:29:00,
2013-09-19 01:34:00,80.8,66.0,29.84,South,175,0.0,0.0,61,0.00,,,0.00,meteohub,2013-09-19 06:34:00,
2013-09-19 01:39:00,80.6,65.8,29.84,South,173,0.0,5.0,61,0.00,,,0.00,meteohub,2013-09-19 06:39:00,
2013-09-19 01:44:00,80.6,65.8,29.84,South,173,0.0,5.0,61,0.00,,,0.00,meteohub,2013-09-19 06:44:00,
2013-09-19 01:49:00,80.4,65.7,29.84,SSW,209,2.0,6.0,61,0.00,,,0.00,meteohub,2013-09-19 06:49:00,
2013-09-19 01:54:00,80.4,66.2,29.84,SW,223,0.0,6.0,62,0.00,,,0.00,meteohub,2013-09-19 06:54:00,
2013-09-19 01:59:00,80.2,66.6,29.85,SW,215,0.0,5.0,63,0.00,,,0.00,meteohub,2013-09-19 06:59:00,
2013-09-19 02:04:00,80.2,66.6,29.85,South,176,0.0,5.0,63,0.00,,,0.00,meteohub,2013-09-19 07:04:00,
2013-09-19 02:09:00,80.2,66.9,29.85,SW,228,2.0,11.0,64,0.00,,,0.00,meteohub,2013-09-19 07:09:00,
2013-09-19 02:14:00,80.1,66.7,29.84,SSW,203,0.0,11.0,64,0.00,,,0.00,meteohub,2013-09-19 07:14:00,
2013-09-19 02:19:00,80.1,66.7,29.84,SSW,198,0.0,9.0,64,0.00,,,0.00,meteohub,2013-09-19 07:19:00,
2013-09-19 02:24:00,79.9,66.6,29.84,South,188,0.0,9.0,64,0.00,,,0.00,meteohub,2013-09-19 07:24:00,
2013-09-19 02:29:00,79.9,66.6,29.85,WSW,238,0.0,9.0,64,0.00,,,0.00,meteohub,2013-09-19 07:29:00,
2013-09-19 02:34:00,79.7,66.4,29.84,SW,224,0.0,9.0,64,0.00,,,0.00,meteohub,2013-09-19 07:34:00,
2013-09-19 02:39:00,79.5,66.7,29.84,SW,215,0.0,9.0,65,0.00,,,0.00,meteohub,2013-09-19 07:39:00,
2013-09-19 02:44:00,79.3,66.6,29.84,South,186,0.0,9.0,65,0.00,,,0.00,meteohub,2013-09-19 07:44:00,
2013-09-19 02:49:00,79.3,66.6,29.84,SSW,196,0.0,8.0,65,0.00,,,0.00,meteohub,2013-09-19 07:49:00,
2013-09-19 02:54:00,79.2,66.7,29.84,SSW,211,0.0,8.0,66,0.00,,,0.00,meteohub,2013-09-19 07:54:00,
2013-09-19 02:59:00,79.2,66.7,29.84,SSW,210,0.0,8.0,66,0.00,,,0.00,meteohub,2013-09-19 07:59:00,
2013-09-19 03:04:00,79.2,66.7,29.85,SW,229,0.0,8.0,66,0.00,,,0.00,meteohub,2013-09-19 08:04:00,
2013-09-19 03:09:00,79.0,66.6,29.85,SW,220,0.0,7.0,66,0.00,,,0.00,meteohub,2013-09-19 08:09:00,
2013-09-19 03:14:00,78.8,66.9,29.85,SW,220,0.0,7.0,67,0.00,,,0.00,meteohub,2013-09-19 08:14:00,
2013-09-19 03:19:00,78.6,66.7,29.85,South,177,0.0,6.0,67,0.00,,,0.00,meteohub,2013-09-19 08:19:00,
2013-09-19 03:24:00,78.6,66.7,29.85,South,176,0.0,6.0,67,0.00,,,0.00,meteohub,2013-09-19 08:24:00,
2013-09-19 03:29:00,78.4,66.9,29.84,South,173,0.0,4.0,68,0.00,,,0.00,meteohub,2013-09-19 08:29:00,
2013-09-19 03:34:00,78.3,66.7,29.84,South,169,0.0,4.0,68,0.00,,,0.00,meteohub,2013-09-19 08:34:00,
2013-09-19 03:40:00,78.1,67.1,29.84,SSE,153,5.0,5.0,69,0.00,,,0.00,meteohub,2013-09-19 08:40:00,
2013-09-19 03:45:00,78.1,67.1,29.84,SE,146,0.0,5.0,69,0.00,,,0.00,meteohub,2013-09-19 08:45:00,
2013-09-19 03:50:00,77.7,67.1,29.84,SSW,192,0.0,7.0,70,0.00,,,0.00,meteohub,2013-09-19 08:50:00,
2013-09-19 03:55:00,77.7,67.1,29.83,South,186,0.0,8.0,70,0.00,,,0.00,meteohub,2013-09-19 08:55:00,
2013-09-19 04:00:00,77.5,66.9,29.84,South,173,0.0,8.0,70,0.00,,,0.00,meteohub,2013-09-19 09:00:00,
2013-09-19 04:05:00,77.5,66.9,29.84,SSE,163,7.0,8.0,70,0.00,,,0.00,meteohub,2013-09-19 09:05:00,
2013-09-19 04:10:00,77.4,67.3,29.83,SSE,162,0.0,7.0,71,0.00,,,0.00,meteohub,2013-09-19 09:10:00,
2013-09-19 04:15:00,77.4,67.3,29.84,SSE,162,0.0,7.0,71,0.00,,,0.00,meteohub,2013-09-19 09:15:00,
2013-09-19 04:20:00,77.4,67.3,29.83,SSE,162,0.0,7.0,71,0.00,,,0.00,meteohub,2013-09-19 09:20:00,
2013-09-19 04:25:00,77.2,67.1,29.84,SSE,162,0.0,7.0,71,0.00,,,0.00,meteohub,2013-09-19 09:25:00,
2013-09-19 04:30:00,77.0,67.3,29.84,SSW,205,0.0,1.0,72,0.00,,,0.00,meteohub,2013-09-19 09:30:00,
2013-09-19 04:35:00,76.8,67.1,29.83,SSW,205,0.0,2.0,72,0.00,,,0.00,meteohub,2013-09-19 09:35:00,
2013-09-19 04:40:00,76.6,67.3,29.83,SSW,199,0.0,2.0,73,0.00,,,0.00,meteohub,2013-09-19 09:40:00,
2013-09-19 04:45:00,76.6,67.3,29.83,SW,214,0.0,2.0,73,0.00,,,0.00,meteohub,2013-09-19 09:45:00,
2013-09-19 04:50:00,76.5,67.1,29.83,SSW,211,0.0,3.0,73,0.00,,,0.00,meteohub,2013-09-19 09:50:00,
2013-09-19 04:55:00,76.5,67.6,29.83,SSW,211,0.0,3.0,74,0.00,,,0.00,meteohub,2013-09-19 09:55:00,
2013-09-19 05:00:00,76.3,67.5,29.83,SSW,207,0.0,1.0,74,0.00,,,0.00,meteohub,2013-09-19 10:00:00,
2013-09-19 05:05:00,76.3,67.5,29.83,SSW,207,0.0,1.0,74,0.00,,,0.00,meteohub,2013-09-19 10:05:00,
2013-09-19 05:10:00,76.1,67.6,29.83,SSW,207,0.0,1.0,75,0.00,,,0.00,meteohub,2013-09-19 10:10:00,
2013-09-19 05:15:00,75.9,67.1,29.83,SSW,207,0.0,1.0,74,0.00,,,0.00,meteohub,2013-09-19 10:15:00,
2013-09-19 05:21:00,75.7,67.3,29.83,SSW,207,0.0,1.0,75,0.00,,,0.00,meteohub,2013-09-19 10:21:00,
2013-09-19 05:26:00,75.7,67.3,29.83,SSW,207,0.0,1.0,75,0.00,,,0.00,meteohub,2013-09-19 10:26:00,
2013-09-19 05:31:00,75.6,67.5,29.83,SSW,207,0.0,0.0,76,0.00,,,0.00,meteohub,2013-09-19 10:31:00,
2013-09-19 05:36:00,75.4,67.3,29.83,SSW,207,0.0,0.0,76,0.00,,,0.00,meteohub,2013-09-19 10:36:00,
2013-09-19 05:41:00,75.4,67.3,29.83,SSW,207,0.0,0.0,76,0.00,,,0.00,meteohub,2013-09-19 10:41:00,
2013-09-19 05:46:00,75.2,67.5,29.83,SSW,207,0.0,0.0,77,0.00,,,0.00,meteohub,2013-09-19 10:46:00,
2013-09-19 05:51:00,75.0,67.3,29.83,SSW,207,0.0,0.0,77,0.00,,,0.00,meteohub,2013-09-19 10:51:00,
2013-09-19 05:56:00,75.0,67.3,29.83,SSW,207,0.0,0.0,77,0.00,,,0.00,meteohub,2013-09-19 10:56:00,
2013-09-19 06:01:00,75.0,67.6,29.83,SSW,207,0.0,0.0,78,0.00,,,0.00,meteohub,2013-09-19 11:01:00,
2013-09-19 06:06:00,74.8,67.5,29.83,SSW,207,0.0,0.0,78,0.00,,,0.00,meteohub,2013-09-19 11:06:00,
2013-09-19 06:11:00,74.8,67.5,29.84,SSW,207,0.0,0.0,78,0.00,,,0.00,meteohub,2013-09-19 11:11:00,
2013-09-19 06:16:00,74.7,67.3,29.84,SSW,207,0.0,0.0,78,0.00,,,0.00,meteohub,2013-09-19 11:16:00,
2013-09-19 06:21:00,74.7,67.6,29.83,SSW,207,0.0,0.0,79,0.00,,,0.00,meteohub,2013-09-19 11:21:00,
2013-09-19 06:26:00,74.7,67.6,29.84,SSW,207,0.0,0.0,79,0.00,,,0.00,meteohub,2013-09-19 11:26:00,
2013-09-19 06:31:00,74.5,67.5,29.84,SSW,207,0.0,0.0,79,0.00,,,0.00,meteohub,2013-09-19 11:31:00,
2013-09-19 06:36:00,74.5,67.5,29.84,SSW,207,0.0,0.0,79,0.00,,,0.00,meteohub,2013-09-19 11:36:00,
2013-09-19 06:41:00,74.3,67.6,29.84,SSW,196,0.0,0.0,80,0.00,,,0.00,meteohub,2013-09-19 11:41:00,
2013-09-19 06:46:00,74.3,67.6,29.84,SSW,196,0.0,0.0,80,0.00,,,0.00,meteohub,2013-09-19 11:46:00,
2013-09-19 06:51:00,74.1,67.6,29.84,SSW,193,0.0,0.0,80,0.00,,,0.00,meteohub,2013-09-19 11:51:00,
2013-09-19 06:56:00,74.1,68.0,29.84,SSW,193,0.0,1.0,81,0.00,,,0.00,meteohub,2013-09-19 11:56:00,
2013-09-19 07:01:00,74.1,68.0,29.84,South,188,0.0,1.0,81,0.00,,,0.00,meteohub,2013-09-19 12:01:00,
2013-09-19 07:06:00,73.9,67.8,29.84,South,184,0.0,1.0,81,0.00,,,0.00,meteohub,2013-09-19 12:06:00,
2013-09-19 07:11:00,73.9,68.2,29.84,SSE,158,0.0,1.0,82,0.00,,,0.00,meteohub,2013-09-19 12:11:00,
2013-09-19 07:16:00,73.9,68.2,29.84,SSE,155,0.0,4.0,82,0.00,,,0.00,meteohub,2013-09-19 12:16:00,
2013-09-19 07:21:00,73.9,68.2,29.85,SSE,161,0.0,4.0,82,0.00,,,0.00,meteohub,2013-09-19 12:21:00,
2013-09-19 07:27:00,73.9,68.2,29.85,SSE,161,0.0,4.0,82,0.00,,,0.00,meteohub,2013-09-19 12:27:00,
2013-09-19 07:32:00,73.9,68.2,29.85,SSE,161,0.0,5.0,82,0.00,,,0.00,meteohub,2013-09-19 12:32:00,
2013-09-19 07:37:00,73.9,68.2,29.85,SSE,161,0.0,5.0,82,0.00,,,0.00,meteohub,2013-09-19 12:37:00,
2013-09-19 07:42:00,73.9,68.2,29.85,SSE,161,0.0,5.0,82,0.00,,,0.00,meteohub,2013-09-19 12:42:00,
2013-09-19 07:47:00,73.9,68.4,29.85,SSE,161,0.0,1.0,83,0.00,,,0.00,meteohub,2013-09-19 12:47:00,
2013-09-19 07:52:00,73.9,68.4,29.86,SSE,161,0.0,1.0,83,0.00,,,0.00,meteohub,2013-09-19 12:52:00,
2013-09-19 07:57:00,73.9,68.4,29.85,SSE,161,0.0,1.0,83,0.00,,,0.00,meteohub,2013-09-19 12:57:00,
2013-09-19 08:02:00,73.9,68.4,29.86,SSE,161,0.0,0.0,83,0.00,,,0.00,meteohub,2013-09-19 13:02:00,
2013-09-19 08:07:00,73.9,68.4,29.86,SSE,161,0.0,0.0,83,0.00,,,0.00,meteohub,2013-09-19 13:07:00,
2013-09-19 08:12:00,73.9,68.4,29.86,SSE,161,0.0,0.0,83,0.00,,,0.00,meteohub,2013-09-19 13:12:00,
2013-09-19 08:17:00,73.9,68.7,29.86,SSE,161,0.0,0.0,84,0.00,,,0.00,meteohub,2013-09-19 13:17:00,
2013-09-19 08:22:00,73.9,68.7,29.86,SSE,161,0.0,0.0,84,0.00,,,0.00,meteohub,2013-09-19 13:22:00,
2013-09-19 08:27:00,73.9,68.7,29.86,SSE,161,0.0,0.0,84,0.00,,,0.00,meteohub,2013-09-19 13:27:00,
2013-09-19 08:32:00,73.9,68.7,29.86,SSE,157,0.0,0.0,84,0.00,,,0.00,meteohub,2013-09-19 13:32:00,
2013-09-19 08:37:00,73.9,68.7,29.86,SSE,157,0.0,0.0,84,0.00,,,0.00,meteohub,2013-09-19 13:37:00,
2013-09-19 08:42:00,73.9,68.7,29.86,SSE,155,0.0,0.0,84,0.00,,,0.00,meteohub,2013-09-19 13:42:00,
2013-09-19 08:47:00,73.9,69.1,29.87,SE,140,0.0,0.0,85,0.00,,,0.00,meteohub,2013-09-19 13:47:00,
2013-09-19 08:52:00,73.8,68.9,29.87,South,171,2.0,0.0,85,0.00,,,0.00,meteohub,2013-09-19 13:52:00,
2013-09-19 08:57:00,73.8,68.9,29.87,SSE,167,0.0,0.0,85,0.00,,,0.00,meteohub,2013-09-19 13:57:00,
2013-09-19 09:02:00,73.8,69.3,29.87,South,179,0.0,6.0,86,0.00,,,0.00,meteohub,2013-09-19 14:02:00,
2013-09-19 09:07:00,73.8,69.3,29.88,SE,142,0.0,6.0,86,0.00,,,0.00,meteohub,2013-09-19 14:07:00,
2013-09-19 09:12:00,73.8,69.3,29.88,SE,142,0.0,6.0,86,0.00,,,0.00,meteohub,2013-09-19 14:12:00,
2013-09-19 09:17:00,73.8,69.6,29.88,SE,142,0.0,6.0,87,0.00,,,0.00,meteohub,2013-09-19 14:17:00,
2013-09-19 09:22:00,73.8,69.6,29.88,SE,134,0.0,6.0,87,0.00,,,0.00,meteohub,2013-09-19 14:22:00,
2013-09-19 09:27:00,73.8,69.6,29.89,SE,133,0.0,6.0,87,0.00,,,0.00,meteohub,2013-09-19 14:27:00,
2013-09-19 09:32:00,73.8,70.0,29.89,SE,133,0.0,6.0,88,0.00,,,0.00,meteohub,2013-09-19 14:32:00,
2013-09-19 09:37:00,73.8,70.0,29.89,SE,133,0.0,6.0,88,0.00,,,0.00,meteohub,2013-09-19 14:37:00,
2013-09-19 09:42:00,73.8,70.0,29.89,SE,133,0.0,6.0,88,0.00,,,0.00,meteohub,2013-09-19 14:42:00,
2013-09-19 09:47:00,73.6,69.8,29.89,SE,144,0.0,6.0,88,0.00,,,0.00,meteohub,2013-09-19 14:47:00,
2013-09-19 09:52:00,73.6,70.2,29.89,SE,144,0.0,6.0,89,0.00,,,0.01,meteohub,2013-09-19 14:52:00,
2013-09-19 09:57:00,73.4,70.0,29.90,SE,144,0.0,6.0,89,0.01,,,0.01,meteohub,2013-09-19 14:57:00,
2013-09-19 10:02:00,73.2,70.2,29.90,SE,142,0.0,7.0,90,0.01,,,0.01,meteohub,2013-09-19 15:02:00,
2013-09-19 10:07:00,73.2,70.2,29.90,SE,142,0.0,7.0,90,0.01,,,0.01,meteohub,2013-09-19 15:07:00,
2013-09-19 10:12:00,73.4,70.5,29.90,SE,142,0.0,7.0,91,0.01,,,0.02,meteohub,2013-09-19 15:12:00,
2013-09-19 10:17:00,73.2,70.2,29.90,SE,142,0.0,2.0,90,0.02,,,0.02,meteohub,2013-09-19 15:17:00,
2013-09-19 10:22:00,73.2,70.5,29.90,SE,142,0.0,2.0,91,0.02,,,0.03,meteohub,2013-09-19 15:22:00,
2013-09-19 10:27:00,73.2,70.5,29.90,SE,142,0.0,2.0,91,0.02,,,0.03,meteohub,2013-09-19 15:27:00,
2013-09-19 10:32:00,73.2,70.5,29.90,SE,142,0.0,0.0,91,0.03,,,0.03,meteohub,2013-09-19 15:32:00,
2013-09-19 10:37:00,73.2,70.5,29.90,SE,140,0.0,0.0,91,0.03,,,0.03,meteohub,2013-09-19 15:37:00,
2013-09-19 10:42:00,73.2,70.5,29.90,SE,140,0.0,0.0,91,0.03,,,0.03,meteohub,2013-09-19 15:42:00,
2013-09-19 10:47:00,73.2,70.5,29.90,SE,140,0.0,0.0,91,0.03,,,0.03,meteohub,2013-09-19 15:47:00,
2013-09-19 10:52:00,73.2,70.5,29.90,SE,140,0.0,0.0,91,0.03,,,0.03,meteohub,2013-09-19 15:52:00,
2013-09-19 10:57:00,73.2,70.7,29.90,SE,140,0.0,0.0,92,0.03,,,0.03,meteohub,2013-09-19 15:57:00,
2013-09-19 11:02:00,73.2,70.5,29.90,SE,140,0.0,0.0,91,0.03,,,0.03,meteohub,2013-09-19 16:02:00,
2013-09-19 11:07:00,73.2,70.5,29.90,SE,140,0.0,0.0,91,0.03,,,0.03,meteohub,2013-09-19 16:07:00,
2013-09-19 11:12:00,73.2,70.7,29.91,SE,140,0.0,0.0,92,0.03,,,0.04,meteohub,2013-09-19 16:12:00,
2013-09-19 11:17:00,73.2,70.7,29.90,SE,140,0.0,0.0,92,0.03,,,0.04,meteohub,2013-09-19 16:17:00,
2013-09-19 11:22:00,73.4,70.9,29.90,SE,140,0.0,0.0,92,0.03,,,0.05,meteohub,2013-09-19 16:22:00,
2013-09-19 11:27:00,73.2,70.7,29.90,SE,140,0.0,0.0,92,0.03,,,0.05,meteohub,2013-09-19 16:27:00,
2013-09-19 11:32:00,73.6,71.1,29.90,SE,140,0.0,0.0,92,0.02,,,0.05,meteohub,2013-09-19 16:32:00,
2013-09-19 11:37:00,73.4,70.9,29.90,SE,140,0.0,0.0,92,0.02,,,0.05,meteohub,2013-09-19 16:37:00,
2013-09-19 11:42:00,73.4,70.9,29.90,SE,140,0.0,0.0,92,0.02,,,0.05,meteohub,2013-09-19 16:42:00,
2013-09-19 11:47:00,73.4,70.5,29.90,SE,140,0.0,1.0,91,0.02,,,0.05,meteohub,2013-09-19 16:47:00,
2013-09-19 11:52:00,73.6,71.1,29.90,SE,140,0.0,1.0,92,0.02,,,0.05,meteohub,2013-09-19 16:52:00,
2013-09-19 11:57:00,73.6,70.7,29.90,SE,140,0.0,1.0,91,0.01,,,0.05,meteohub,2013-09-19 16:57:00,
2013-09-19 12:02:00,73.8,70.9,29.90,SE,140,0.0,0.0,91,0.01,,,0.05,meteohub,2013-09-19 17:02:00,
2013-09-19 12:07:00,73.9,71.1,29.90,SE,140,0.0,0.0,91,0.01,,,0.05,meteohub,2013-09-19 17:07:00,
2013-09-19 12:12:00,73.9,70.9,29.89,SE,140,0.0,0.0,90,0.01,,,0.05,meteohub,2013-09-19 17:12:00,
2013-09-19 12:17:00,74.1,71.2,29.89,SE,140,0.0,0.0,91,0.00,,,0.05,meteohub,2013-09-19 17:17:00,
2013-09-19 12:22:00,74.5,71.6,29.89,SE,140,0.0,0.0,91,0.00,,,0.05,meteohub,2013-09-19 17:22:00,
2013-09-19 12:27:00,74.7,71.2,29.90,SE,140,0.0,0.0,89,0.00,,,0.05,meteohub,2013-09-19 17:27:00,
2013-09-19 12:32:00,74.7,71.2,29.90,SE,140,0.0,0.0,89,0.00,,,0.05,meteohub,2013-09-19 17:32:00,
2013-09-19 12:37:00,74.7,71.2,29.90,SE,140,0.0,0.0,89,0.00,,,0.05,meteohub,2013-09-19 17:37:00,
2013-09-19 12:42:00,74.7,71.2,29.90,SE,140,0.0,0.0,89,0.00,,,0.05,meteohub,2013-09-19 17:42:00,
2013-09-19 12:47:00,74.7,71.2,29.89,SE,140,0.0,0.0,89,0.00,,,0.05,meteohub,2013-09-19 17:47:00,
2013-09-19 12:52:00,74.7,71.2,29.89,SE,140,0.0,0.0,89,0.00,,,0.06,meteohub,2013-09-19 17:52:00,
2013-09-19 12:57:00,74.7,71.2,29.89,SE,140,0.0,0.0,89,0.01,,,0.06,meteohub,2013-09-19 17:57:00,
2013-09-19 13:02:00,74.7,71.2,29.88,SE,140,0.0,0.0,89,0.01,,,0.06,meteohub,2013-09-19 18:02:00,
2013-09-19 13:07:00,74.7,71.2,29.89,SE,140,0.0,0.0,89,0.01,,,0.06,meteohub,2013-09-19 18:07:00,
2013-09-19 13:12:00,75.0,72.0,29.88,SE,140,0.0,0.0,90,0.01,,,0.07,meteohub,2013-09-19 18:12:00,
2013-09-19 13:17:00,75.2,71.8,29.88,SE,140,0.0,0.0,89,0.02,,,0.07,meteohub,2013-09-19 18:17:00,
2013-09-19 13:22:00,75.4,71.2,29.88,SE,139,0.0,0.0,87,0.02,,,0.07,meteohub,2013-09-19 18:22:00,
2013-09-19 13:27:00,75.6,71.8,29.88,NNE,20,0.0,0.0,88,0.02,,,0.07,meteohub,2013-09-19 18:27:00,
2013-09-19 13:32:00,75.6,71.1,29.88,NNE,20,0.0,1.0,86,0.02,,,0.07,meteohub,2013-09-19 18:32:00,
2013-09-19 13:37:00,75.6,70.3,29.88,NNE,28,0.0,1.0,84,0.02,,,0.07,meteohub,2013-09-19 18:37:00,
2013-09-19 13:42:00,75.6,70.3,29.87,NE,36,0.0,3.0,84,0.01,,,0.07,meteohub,2013-09-19 18:42:00,
2013-09-19 13:47:00,75.6,70.3,29.87,NE,40,0.0,3.0,84,0.01,,,0.07,meteohub,2013-09-19 18:47:00,
2013-09-19 13:52:00,75.6,70.3,29.86,NE,39,0.0,3.0,84,0.01,,,0.07,meteohub,2013-09-19 18:52:00,
2013-09-19 13:57:00,75.6,70.3,29.86,NE,43,0.0,1.0,84,0.00,,,0.07,meteohub,2013-09-19 18:57:00,
2013-09-19 14:02:00,75.4,70.2,29.86,ENE,57,0.0,1.0,84,0.00,,,0.07,meteohub,2013-09-19 19:02:00,
2013-09-19 14:07:00,75.2,70.0,29.86,ENE,57,0.0,1.0,84,0.00,,,0.07,meteohub,2013-09-19 19:07:00,
2013-09-19 14:12:00,75.0,70.2,29.85,ENE,66,0.0,1.0,85,0.01,,,0.07,meteohub,2013-09-19 19:12:00,
2013-09-19 14:17:00,75.0,70.5,29.85,ENE,73,0.0,4.0,86,0.01,,,0.07,meteohub,2013-09-19 19:17:00,
2013-09-19 14:22:00,75.0,70.5,29.85,ENE,74,0.0,4.0,86,0.01,,,0.08,meteohub,2013-09-19 19:22:00,
2013-09-19 14:28:00,74.8,70.3,29.85,NE,54,0.0,4.0,86,0.01,,,0.08,meteohub,2013-09-19 19:28:00,
2013-09-19 14:33:00,74.8,70.7,29.85,East,80,0.0,4.0,87,0.01,,,0.08,meteohub,2013-09-19 19:33:00,
2013-09-19 14:38:00,74.7,70.9,29.85,East,80,0.0,4.0,88,0.01,,,0.08,meteohub,2013-09-19 19:38:00,
2013-09-19 14:43:00,74.7,70.5,29.85,NE,51,0.0,5.0,87,0.01,,,0.08,meteohub,2013-09-19 19:43:00,
2013-09-19 14:48:00,74.7,70.9,29.85,NE,51,0.0,3.0,88,0.01,,,0.08,meteohub,2013-09-19 19:48:00,
2013-09-19 14:53:00,74.5,70.7,29.85,NE,51,0.0,3.0,88,0.01,,,0.09,meteohub,2013-09-19 19:53:00,
2013-09-19 14:58:00,74.3,70.5,29.84,ENE,60,0.0,0.0,88,0.02,,,0.09,meteohub,2013-09-19 19:58:00,
2013-09-19 15:03:00,74.1,70.7,29.84,ENE,60,0.0,0.0,89,0.02,,,0.09,meteohub,2013-09-19 20:03:00,
2013-09-19 15:08:00,74.1,71.1,29.84,ENE,60,0.0,3.0,90,0.03,,,0.09,meteohub,2013-09-19 20:08:00,
2013-09-19 15:13:00,74.1,71.1,29.84,ENE,63,0.0,3.0,90,0.03,,,0.10,meteohub,2013-09-19 20:13:00,
2013-09-19 15:18:00,74.1,71.1,29.83,ENE,63,0.0,2.0,90,0.03,,,0.10,meteohub,2013-09-19 20:18:00,
2013-09-19 15:23:00,74.1,71.1,29.83,ENE,63,0.0,2.0,90,0.03,,,0.11,meteohub,2013-09-19 20:23:00,
2013-09-19 15:28:00,74.1,71.1,29.83,NNE,27,0.0,4.0,90,0.03,,,0.11,meteohub,2013-09-19 20:28:00,
2013-09-19 15:33:00,74.1,71.1,29.82,NNE,27,0.0,4.0,90,0.03,,,0.12,meteohub,2013-09-19 20:33:00,
2013-09-19 15:38:00,74.1,71.1,29.82,NE,40,0.0,2.0,90,0.04,,,0.12,meteohub,2013-09-19 20:38:00,
2013-09-19 15:43:00,74.1,71.1,29.83,NE,42,0.0,2.0,90,0.04,,,0.13,meteohub,2013-09-19 20:43:00,
2013-09-19 15:48:00,74.1,71.1,29.83,NE,42,0.0,5.0,90,0.05,,,0.13,meteohub,2013-09-19 20:48:00,
2013-09-19 15:53:00,74.1,71.1,29.83,NE,42,2.0,5.0,90,0.04,,,0.13,meteohub,2013-09-19 20:53:00,
2013-09-19 15:58:00,74.1,71.1,29.83,NE,36,0.0,5.0,90,0.04,,,0.13,meteohub,2013-09-19 20:58:00,
2013-09-19 16:03:00,74.1,71.2,29.83,NE,36,0.0,5.0,91,0.04,,,0.13,meteohub,2013-09-19 21:03:00,
2013-09-19 16:08:00,74.3,71.2,29.83,NE,36,0.0,4.0,90,0.03,,,0.13,meteohub,2013-09-19 21:08:00,
2013-09-19 16:13:00,74.5,71.4,29.83,NE,36,0.0,4.0,90,0.03,,,0.14,meteohub,2013-09-19 21:13:00,
2013-09-19 16:18:00,74.5,71.4,29.83,North,5,3.0,0.0,90,0.03,,,0.14,meteohub,2013-09-19 21:18:00,
2013-09-19 16:23:00,74.5,71.4,29.83,North,5,0.0,0.0,90,0.03,,,0.14,meteohub,2013-09-19 21:23:00,
2013-09-19 16:28:00,74.5,71.4,29.83,North,5,0.0,4.0,90,0.03,,,0.14,meteohub,2013-09-19 21:28:00,
2013-09-19 16:33:00,74.5,71.4,29.83,North,0,0.0,4.0,90,0.03,,,0.15,meteohub,2013-09-19 21:33:00,
2013-09-19 16:38:00,74.5,71.4,29.83,North,355,0.0,3.0,90,0.03,,,0.15,meteohub,2013-09-19 21:38:00,
2013-09-19 16:44:00,74.5,71.6,29.83,North,355,0.0,3.0,91,0.03,,,0.16,meteohub,2013-09-19 21:44:00,
2013-09-19 16:49:00,74.3,71.2,29.83,North,355,0.0,3.0,90,0.03,,,0.16,meteohub,2013-09-19 21:49:00,
2013-09-19 16:54:00,74.1,71.2,29.83,NNW,327,0.0,3.0,91,0.05,,,0.18,meteohub,2013-09-19 21:54:00,
2013-09-19 16:59:00,74.1,71.2,29.83,NNW,327,0.0,1.0,91,0.05,,,0.18,meteohub,2013-09-19 21:59:00,
2013-09-19 17:04:00,73.9,71.1,29.83,NNW,327,0.0,1.0,91,0.05,,,0.19,meteohub,2013-09-19 22:04:00,
2013-09-19 17:09:00,73.9,71.1,29.83,NNW,342,0.0,0.0,91,0.07,,,0.19,meteohub,2013-09-19 22:09:00,
2013-09-19 17:15:00,73.8,71.2,29.84,North,355,0.0,4.0,92,0.07,,,0.20,meteohub,2013-09-19 22:15:00,
2013-09-19 17:20:00,73.6,71.1,29.84,ENE,57,4.0,4.0,92,0.07,,,0.20,meteohub,2013-09-19 22:20:00,
2013-09-19 17:25:00,73.6,71.4,29.84,NE,51,1.0,4.0,93,0.10,,,0.23,meteohub,2013-09-19 22:25:00,
2013-09-19 17:30:00,73.0,70.3,29.84,NE,46,0.0,8.0,91,0.10,,,0.23,meteohub,2013-09-19 22:30:00,
2013-09-19 17:35:00,72.7,70.2,29.84,NE,34,0.0,12.0,92,0.20,,,0.30,meteohub,2013-09-19 22:35:00,
2013-09-19 17:40:00,72.5,70.3,29.84,NE,34,0.0,12.0,93,0.20,,,0.30,meteohub,2013-09-19 22:40:00,
2013-09-19 17:45:00,72.5,70.3,29.84,NE,34,0.0,12.0,93,0.26,,,0.41,meteohub,2013-09-19 22:45:00,
2013-09-19 17:50:00,72.5,70.7,29.84,North,5,0.0,8.0,94,0.26,,,0.47,meteohub,2013-09-19 22:50:00,
2013-09-19 17:55:00,72.3,70.2,29.84,NE,53,2.0,8.0,93,0.30,,,0.47,meteohub,2013-09-19 22:55:00,
2013-09-19 18:00:00,72.0,69.8,29.84,NE,40,0.0,8.0,93,0.30,,,0.47,meteohub,2013-09-19 23:00:00,
2013-09-19 18:05:00,71.4,68.9,29.84,NE,40,0.0,8.0,92,0.37,,,0.55,meteohub,2013-09-19 23:05:00,
2013-09-19 18:10:00,70.9,68.2,29.84,NNE,21,0.0,8.0,91,0.37,,,0.60,meteohub,2013-09-19 23:10:00,
2013-09-19 18:15:00,70.3,67.6,29.84,North,350,0.0,5.0,91,0.41,,,0.60,meteohub,2013-09-19 23:15:00,
2013-09-19 18:20:00,70.0,67.5,29.83,North,355,0.0,5.0,92,0.41,,,0.60,meteohub,2013-09-19 23:20:00,
2013-09-19 18:25:00,69.8,67.3,29.83,North,355,0.0,5.0,92,0.41,,,0.66,meteohub,2013-09-19 23:25:00,
2013-09-19 18:30:00,69.8,67.6,29.83,North,355,0.0,4.0,93,0.42,,,0.66,meteohub,2013-09-19 23:30:00,
2013-09-19 18:35:00,70.0,67.8,29.83,NW,315,0.0,4.0,93,0.42,,,0.66,meteohub,2013-09-19 23:35:00,
2013-09-19 18:41:00,70.0,67.8,29.83,NW,312,0.0,0.0,93,0.30,,,0.72,meteohub,2013-09-19 23:41:00,
2013-09-19 18:46:00,70.2,68.4,29.83,NW,312,0.0,0.0,94,0.30,,,0.72,meteohub,2013-09-19 23:46:00,
2013-09-19 18:51:00,70.2,68.4,29.83,NW,312,0.0,0.0,94,0.30,,,0.76,meteohub,2013-09-19 23:51:00,
2013-09-19 18:56:00,70.2,68.4,29.83,NW,311,0.0,0.0,94,0.28,,,0.76,meteohub,2013-09-19 23:56:00,
2013-09-19 19:01:00,70.2,68.4,29.84,NW,311,0.0,0.0,94,0.28,,,0.78,meteohub,2013-09-20 00:01:00,
2013-09-19 19:06:00,70.0,68.2,29.84,NW,312,0.0,0.0,94,0.22,,,0.78,meteohub,2013-09-20 00:06:00,
2013-09-19 19:11:00,70.0,68.2,29.83,NW,311,0.0,0.0,94,0.22,,,0.80,meteohub,2013-09-20 00:11:00,
2013-09-19 19:16:00,70.2,68.4,29.83,NW,311,0.0,0.0,94,0.17,,,0.80,meteohub,2013-09-20 00:16:00,
2013-09-19 19:21:00,70.2,68.4,29.83,NW,312,0.0,0.0,94,0.17,,,0.82,meteohub,2013-09-20 00:21:00,
2013-09-19 19:26:00,70.2,68.7,29.83,NW,311,0.0,0.0,95,0.14,,,0.82,meteohub,2013-09-20 00:26:00,
2013-09-19 19:31:00,70.3,68.9,29.83,NW,312,0.0,0.0,95,0.14,,,0.83,meteohub,2013-09-20 00:31:00,
2013-09-19 19:36:00,70.3,68.9,29.83,NW,311,0.0,0.0,95,0.12,,,0.83,meteohub,2013-09-20 00:36:00,
2013-09-19 19:41:00,70.3,68.9,29.83,NW,311,0.0,0.0,95,0.12,,,0.84,meteohub,2013-09-20 00:41:00,
2013-09-19 19:46:00,70.3,68.9,29.83,NW,311,0.0,0.0,95,0.10,,,0.84,meteohub,2013-09-20 00:46:00,
2013-09-19 19:51:00,70.5,69.1,29.83,NW,311,0.0,0.0,95,0.10,,,0.85,meteohub,2013-09-20 00:51:00,
2013-09-19 19:56:00,70.5,69.1,29.83,NW,312,0.0,0.0,95,0.09,,,0.85,meteohub,2013-09-20 00:56:00,
2013-09-19 20:01:00,70.5,69.1,29.83,NW,312,0.0,0.0,95,0.09,,,0.86,meteohub,2013-09-20 01:01:00,
2013-09-19 20:06:00,70.5,69.1,29.83,NW,312,0.0,0.0,95,0.07,,,0.86,meteohub,2013-09-20 01:06:00,
2013-09-19 20:11:00,70.5,69.1,29.83,NW,311,0.0,0.0,95,0.07,,,0.86,meteohub,2013-09-20 01:11:00,
2013-09-19 20:16:00,70.5,69.1,29.83,NW,311,0.0,0.0,95,0.05,,,0.86,meteohub,2013-09-20 01:16:00,
2013-09-19 20:21:00,70.5,69.1,29.83,NW,311,0.0,0.0,95,0.05,,,0.86,meteohub,2013-09-20 01:21:00,
2013-09-19 20:26:00,70.5,69.1,29.83,NW,311,0.0,0.0,95,0.04,,,0.86,meteohub,2013-09-20 01:26:00,
2013-09-19 20:31:00,70.5,69.1,29.83,NW,311,0.0,0.0,95,0.04,,,0.87,meteohub,2013-09-20 01:31:00,
2013-09-19 20:36:00,70.3,68.9,29.83,NW,311,0.0,0.0,95,0.03,,,0.87,meteohub,2013-09-20 01:36:00,
2013-09-19 20:41:00,70.3,68.9,29.83,NW,312,0.0,0.0,95,0.03,,,0.87,meteohub,2013-09-20 01:41:00,
2013-09-19 20:46:00,70.3,68.9,29.83,NW,311,0.0,0.0,95,0.02,,,0.87,meteohub,2013-09-20 01:46:00,
2013-09-19 20:51:00,70.3,68.9,29.83,NW,313,0.0,0.0,95,0.02,,,0.87,meteohub,2013-09-20 01:51:00,
2013-09-19 20:56:00,70.3,68.9,29.83,NW,313,0.0,0.0,95,0.02,,,0.87,meteohub,2013-09-20 01:56:00,
2013-09-19 21:01:00,70.3,68.9,29.84,NW,313,0.0,0.0,95,0.02,,,0.87,meteohub,2013-09-20 02:01:00,
2013-09-19 21:06:00,70.5,69.1,29.84,NW,313,0.0,0.0,95,0.02,,,0.87,meteohub,2013-09-20 02:06:00,
2013-09-19 21:11:00,70.5,69.1,29.84,NW,311,0.0,0.0,95,0.02,,,0.88,meteohub,2013-09-20 02:11:00,
2013-09-19 21:16:00,70.7,69.4,29.85,NW,311,0.0,0.0,96,0.02,,,0.88,meteohub,2013-09-20 02:16:00,
2013-09-19 21:21:00,70.9,69.6,29.85,NW,311,0.0,0.0,96,0.02,,,0.89,meteohub,2013-09-20 02:21:00,
2013-09-19 21:26:00,70.9,69.4,29.85,NW,309,0.0,0.0,95,0.03,,,0.89,meteohub,2013-09-20 02:26:00,
2013-09-19 21:31:00,70.9,69.6,29.85,SSE,166,0.0,0.0,96,0.03,,,0.90,meteohub,2013-09-20 02:31:00,
2013-09-19 21:36:00,71.1,69.8,29.85,SSE,165,0.0,2.0,96,0.03,,,0.90,meteohub,2013-09-20 02:36:00,
2013-09-19 21:41:00,71.1,69.8,29.85,ESE,111,0.0,2.0,96,0.03,,,0.91,meteohub,2013-09-20 02:41:00,
2013-09-19 21:46:00,71.2,70.0,29.85,East,91,0.0,4.0,96,0.04,,,0.91,meteohub,2013-09-20 02:46:00,
2013-09-19 21:51:00,71.2,70.0,29.85,East,91,0.0,4.0,96,0.04,,,0.91,meteohub,2013-09-20 02:51:00,
2013-09-19 21:56:00,71.2,70.0,29.85,East,91,0.0,4.0,96,0.04,,,0.91,meteohub,2013-09-20 02:56:00,
2013-09-19 22:01:00,71.2,70.0,29.85,East,91,0.0,4.0,96,0.04,,,0.92,meteohub,2013-09-20 03:01:00,
2013-09-19 22:06:00,71.2,70.0,29.85,East,91,0.0,4.0,96,0.04,,,0.92,meteohub,2013-09-20 03:06:00,
2013-09-19 22:11:00,71.2,69.8,29.85,East,92,0.0,0.0,95,0.04,,,0.92,meteohub,2013-09-20 03:11:00,
2013-09-19 22:16:00,71.2,70.0,29.85,East,92,0.0,0.0,96,0.04,,,0.92,meteohub,2013-09-20 03:16:00,
2013-09-19 22:21:00,71.1,69.8,29.85,East,91,0.0,0.0,96,0.04,,,0.92,meteohub,2013-09-20 03:21:00,
2013-09-19 22:27:00,71.1,69.8,29.85,East,91,0.0,0.0,96,0.03,,,0.92,meteohub,2013-09-20 03:27:00,
2013-09-19 22:32:00,71.1,69.8,29.85,East,91,0.0,0.0,96,0.03,,,0.93,meteohub,2013-09-20 03:32:00,
2013-09-19 22:37:00,70.9,69.6,29.85,East,91,0.0,0.0,96,0.03,,,0.93,meteohub,2013-09-20 03:37:00,
2013-09-19 22:42:00,70.9,69.6,29.85,East,92,0.0,0.0,96,0.03,,,0.94,meteohub,2013-09-20 03:42:00,
2013-09-19 22:47:00,70.9,69.6,29.85,East,92,0.0,0.0,96,0.03,,,0.94,meteohub,2013-09-20 03:47:00,
2013-09-19 22:52:00,70.9,69.6,29.85,East,92,0.0,0.0,96,0.03,,,0.94,meteohub,2013-09-20 03:52:00,
2013-09-19 22:57:00,71.1,69.8,29.85,East,92,0.0,0.0,96,0.04,,,0.94,meteohub,2013-09-20 03:57:00,
2013-09-19 23:01:00,71.1,69.8,29.85,East,92,0.0,0.0,96,0.04,,,0.95,meteohub,2013-09-20 04:01:00,
2013-09-19 23:02:00,71.1,69.8,29.85,East,92,0.0,0.0,96,0.04,,,0.95,meteohub,2013-09-20 04:02:00,
2013-09-19 23:07:00,71.1,69.8,29.85,East,91,0.0,0.0,96,0.03,,,0.95,meteohub,2013-09-20 04:07:00,
2013-09-19 23:12:00,71.1,69.8,29.84,East,92,0.0,0.0,96,0.03,,,0.95,meteohub,2013-09-20 04:12:00,
2013-09-19 23:17:00,71.1,69.8,29.85,East,91,0.0,0.0,96,0.03,,,0.95,meteohub,2013-09-20 04:17:00,
2013-09-19 23:22:00,71.1,69.8,29.85,East,91,0.0,0.0,96,0.03,,,0.95,meteohub,2013-09-20 04:22:00,
2013-09-19 23:27:00,71.1,69.8,29.85,East,91,0.0,0.0,96,0.02,,,0.95,meteohub,2013-09-20 04:27:00,
2013-09-19 23:32:00,71.1,69.8,29.85,East,91,0.0,0.0,96,0.02,,,0.95,meteohub,2013-09-20 04:32:00,
2013-09-19 23:37:00,71.1,69.8,29.85,East,91,0.0,0.0,96,0.02,,,0.95,meteohub,2013-09-20 04:37:00,
2013-09-19 23:42:00,71.1,69.8,29.85,East,91,0.0,0.0,96,0.02,,,0.95,meteohub,2013-09-20 04:42:00,
2013-09-19 23:47:00,71.1,69.8,29.84,East,91,0.0,0.0,96,0.01,,,0.95,meteohub,2013-09-20 04:47:00,
2013-09-19 23:52:00,71.1,69.8,29.84,East,91,0.0,0.0,96,0.01,,,0.95,meteohub,2013-09-20 04:52:00,
2013-09-19 23:57:00,71.1,69.8,29.84,East,91,0.0,1.0,96,0.00,,,0.95,meteohub,2013-09-20 04:57:00,